#timestamp,LO_Frequency,Hit,StdDev 
1621890015.8,286046998.5,N
1621890035.6,286047000.0,N
1621890055.5,286046999.8,N
1621890075.3,286046999.7,N
1621890095.2,286047002.1,N
1621890115.9,286047002.8,N
1621890135.7,286047002.4,N
1621890155.6,286047004.3,N
1621890175.4,286047000.7,N
1621890195.2,286047001.0,N
1621890215.1,286047002.0,N
1621890216.0,286047002.0,N
1621890235.8,286046999.8,N
1621890255.7,286046999.3,N
1621890275.5,286046997.6,N
1621890295.3,286046998.8,N
1621890315.2,286047000.7,N
1621890335.0,286047000.6,N
1621890335.9,286047000.6,N
1621890355.8,286047000.3,N
1621890375.6,286047003.9,N
1621890395.4,286047004.0,N
1621890415.3,286047001.6,N
1621890435.1,286046999.8,N
1621890455.9,286047004.4,N
1621890475.7,286047002.3,N
1621890495.5,286047004.3,N
1621890515.4,286047000.0,N
1621890535.2,286047001.1,N
1621890555.0,286047000.7,N
1621890555.9,286047000.7,N
1621890575.8,286046997.9,N
1621890595.6,286046995.4,N
1621890615.5,286046998.7,N
1621890635.3,286047000.0,N
1621890655.1,286047000.1,N
1621890675.9,286047001.0,N
1621890695.7,286046999.9,N
1621890715.5,286046999.4,N
1621890735.4,286047000.5,N
1621890755.2,286047000.9,N
1621890775.1,286047002.6,N
1621890776.0,286047002.6,N
1621890795.8,286047001.7,N
1621890815.6,286047001.4,N
1621890835.5,286047000.5,N
1621890855.3,286046999.8,N
1621890875.1,286047002.7,N
1621890895.9,286046998.5,N
1621890915.7,286046997.9,N
1621890935.6,286046998.8,N
1621890955.4,286047000.9,N
1621890975.2,286046999.4,N
1621890995.1,286046999.2,N
1621890996.0,286046999.2,N
1621891015.8,286047000.9,N
1621891035.6,286047002.1,N
1621891055.5,286046999.9,N
1621891075.3,286046998.4,N
1621891095.2,286047001.2,N
1621891115.9,286046998.6,N
1621891135.7,286046996.1,N
1621891155.6,286046995.7,N
1621891175.4,286046998.0,N
1621891195.2,286046995.6,N
1621891215.1,286046996.7,N
1621891216.0,286046996.7,N
1621891235.8,286046997.7,N
1621891255.7,286046995.5,N
1621891275.5,286046993.3,Y
1621891295.3,286046993.5,P
1621891315.2,286046991.7,N
1621891335.0,286046993.8,N
1621891335.9,286046993.8,N
1621891355.7,286046996.3,N
1621891375.6,286046996.4,N
1621891395.4,286046995.0,N
1621891415.3,286046994.9,N
1621891435.1,286046995.7,N
1621891436.0,286046995.7,N
1621891455.8,286046996.2,N
1621891475.7,286046996.0,N
1621891495.5,286046996.1,N
1621891515.3,286046995.0,N
1621891535.2,286046997.5,N
1621891555.0,286046995.7,N
1621891555.9,286046995.7,N
1621891575.8,286046994.0,Y
1621891595.6,286046998.6,P
1621891615.4,286046998.8,N
1621891635.3,286046998.3,N
1621891655.1,286046999.4,N
1621891675.9,286046998.8,N
1621891695.7,286047000.5,N
1621891715.5,286047001.2,N
1621891735.4,286046996.6,N
1621891755.2,286046997.5,N
1621891775.0,286046996.0,N
1621891775.9,286046996.0,N
1621891795.8,286046997.6,N
1621891815.6,286046995.7,N
1621891835.5,286046995.0,N
1621891855.3,286046995.2,N
1621891875.1,286046995.8,N
1621891895.9,286046994.1,Y
1621891915.7,286046997.5,P
1621891935.5,286046996.7,P
1621891955.4,286046997.4,P
1621891975.2,286046998.7,Y
1621891995.1,286047000.3,P
1621891996.0,286047000.3,N
1621892015.8,286047001.0,N
1621892035.6,286047000.1,N
1621892055.5,286046999.8,N
1621892075.3,286047002.8,N
1621892095.1,286047002.3,N
1621892115.9,286046998.5,N
1621892135.7,286046998.6,N
1621892155.6,286047001.0,N
1621892175.4,286046999.9,N
1621892195.2,286047000.0,N
1621892215.1,286047001.6,N
1621892216.0,286047001.6,N
1621892235.8,286047003.7,N
1621892255.6,286047003.1,N
1621892275.5,286047005.2,Y
1621892295.3,286047005.7,P
1621892315.2,286047005.9,N
1621892335.9,286047005.3,N
1621892355.7,286047003.0,N
1621892375.6,286047005.6,N
1621892395.4,286047001.5,N
1621892415.2,286047004.1,N
1621892435.1,286047003.4,N
1621892436.0,286047003.4,N
1621892455.8,286047003.5,N
1621892475.7,286047004.3,N
1621892495.5,286047003.8,N
1621892515.3,286047003.1,N
1621892535.2,286047002.0,N
1621892555.0,286047004.1,N
1621892555.9,286047004.1,N
1621892575.8,286047004.1,N
1621892595.6,286047004.2,Y
1621892615.4,286046998.5,P
1621892635.3,286046999.2,N
1621892655.1,286047001.1,N
1621892675.8,286046999.8,N
1621892695.7,286047000.5,N
1621892715.5,286047002.8,N
1621892735.4,286046998.2,N
1621892755.2,286047002.4,N
1621892775.0,286047002.8,N
1621892775.9,286047002.8,N
1621892795.8,286047002.1,N
1621892815.6,286047003.8,N
1621892835.4,286047003.6,N
1621892855.3,286047001.7,N
1621892875.1,286046999.8,N
1621892895.9,286047000.2,N
1621892915.7,286046998.2,N
1621892935.5,286046999.8,N
1621892955.4,286047001.5,N
1621892975.2,286047004.3,N
1621892995.0,286047004.0,N
1621892995.9,286047004.0,N
1621893015.8,286047004.1,N
1621893035.6,286047002.3,N
1621893055.5,286047001.5,N
1621893075.3,286047001.9,N
1621893095.1,286047004.3,N
1621893115.9,286047002.2,N
1621893135.7,286047001.3,N
1621893155.6,286047004.2,N
1621893175.4,286047005.7,Y
1621893195.2,286047000.0,P
1621893215.1,286046999.8,N
1621893216.0,286046999.8,N
1621893235.8,286047002.0,N
1621893255.6,286047001.8,N
1621893275.5,286047001.5,N
1621893295.3,286046998.5,N
1621893315.2,286046998.1,N
1621893335.9,286047000.7,N
1621893355.7,286047002.6,N
1621893375.6,286047000.4,N
1621893395.4,286047004.2,Y
1621893415.2,286047004.4,P
1621893435.1,286047001.9,N
1621893436.0,286047001.9,N
1621893455.8,286047004.3,Y
1621893475.7,286047001.1,P
1621893495.5,286047001.0,N
1621893515.3,286047001.0,N
1621893535.2,286046999.7,N
1621893555.0,286046999.3,N
1621893555.9,286046999.3,N
1621893575.8,286047000.7,N
1621893595.6,286047000.8,N
